Terminal Aerodrome Forecast
Issued by NWS St Louis, MO

Home | Current Version | Previous Version | Text Only | Print | Product List | Glossary On
Versions: 1 2 3 4 5 6 7 8 9 10 11 12 13 14 15 16 17 18 19 20 21 22 23
490
FTUS43 KLSX 182320
TAFSTL
TAF
KSTL 182320Z 1900/2006 09004KT P6SM FEW080
     FM191600 26004KT P6SM FEW060
     FM200000 17004KT P6SM FEW090=

USA.gov is the U.S. government's official web portal to all federal, state and local government web resources and services.